Location: Hurstbourne Priors
(51.2000°N, 1.3667°W)
Time: 03:46:24
(UTC+00:00)

Iridium 4 Rocket - Pass Details

Date: 09 April 2020
Orbit: 585 x 904 km, 86.9° (Epoch: 26 May)

Event Time Altitude Azimuth Distance (km) Brightness Sun altitude
Rises 19:51:06 0° 7° (N) 2,866 6.7 -9.5°
Reaches altitude 10° 19:53:47 10° 23° (NNE) 1,935 5.6 -9.8°
Maximum altitude 19:57:01 21° 74° (ENE) 1,335 4.4 -10.3°
Enters shadow 19:59:09 15° 112° (ESE) 1,616 4.5 -10.6°
